SCP
0 0 0 0 0 0 0 0 0 0 0 0 0 0 0 0 0 0 0 0 0 0 0 0 0 0 0 0 0 0 0 0 0 0 0 0 0 0
0 0 0 0 0 0 0 0 0 0 0 0 0 0 0 0 0 0 0 0 0 0 0 0 -0 0 0 0 0 0 0 0 0 0 0 0 0 0
0 0 0 0 0 0 0 0 0 0 0 0 0 0 0 0 0 0 0 0 0 0 0 0 0 -0 -0 0 0 0 0 0 0 0 0 0 0 0
0 0 0 0 0 0 0 0 0 0 0 0 0 0 0 0 0 0 0 0 0 0 0 0 0 0 0 0 -0 0 0 0 0 0 0 0 0 0
0 0 0 0 0 0 0 0 0 0 0 0 0 0 0 0 0 0 0 0 0 0 0 0 0 0 0 0 0 -0 0 0 0 0 0 0 0 0
0 0 0 0 0 0 0 0 0 0 0 0 0 0 0 0 0 0 0 0 0 0 0 0 0 0 0 0 0 0 -0 0 0 0 0 0 0 0
0 0 0 0 0 0 0 0 0 0 0 0 0 0 0 0 0 0 0 0 0 0 0 0 0 0 0 0 0 0 0 0 -0 0 0 0 0 0
0 0 0 0 0 0 0 0 0 0 0 0 0 0 0 0 0 0 0 0 0 0 0 0 0 0 0 0 0 0 0 0 0 0 0 0 0 0
0 0 0 0 0 0 0 0 0 0 0 0 0 0 0 0 0 0 0 0 0 0 0 0 0 0 0 0 0 0 0 0 0 0 0 0 0 0
0 0 0 0 0 0 0 0 0 0 0 0 0 0 0 0 0 0 0 0 0 0 0 0 0 0 0 0 0 0 0 0 0 0 0 0 0 0
0 0 0 0 0 0 0 0 0 0 0 0 0 0 0 -0 0 -0 -0 0 0 0 0 0 0 0 0 0 0 0 0 0 0 0 0 0 0 0
0 0 0 0 0 0 0 0 0 0 0 0 0 0 0 0 -0 0 0 0 0 0 0 0 0 0 0 0 0 0 0 0 0 0 0 0 0 0
0 0 0 0 0 0 0 0 0 0 0 0 0 0 0 0 -0 -0 -0 -0 0 0 0 0 0 0 0 0 0 0 0 0 0 0 0 0 0 0
0 0 0 0 0 0 0 0 0 0 0 0 0 0 0 0 -0 -0 -0 -0 0 0 0 0 0 0 0 0 0 0 0 0 0 0 0 0 0 0
0 0 0 0 0 0 0 0 0 0 0 0 0 0 0 0 -0 -0 -0 -0 -0 -0 0 0 0 0 0 0 0 0 0 0 0 0 0 0 0 0
0 0 0 0 0 0 0 0 0 0 0 0 0 0 0 0 0 -0 -0 -0 0 0 0 0 0 0 0 0 0 0 0 0 0 0 0 0 0 0
0 0 0 0 0 0 0 0 0 0 0 0 0 0 0 -0 -0 -0 -0 -0 0 0 0 0 -0 -0 0 0 0 0 0 0 0 0 0 0 0 0
0 0 0 0 0 0 0 0 -0 -0 -0 0 0 0 0 0 -0 -0 -0 -0 -0 0 0 0 0 -0 0 0 0 0 0 0 0 0 0 0 0 0
0 0 0 0 0 0 0 0 -0 -0 -0 -0 -0 -0 0 -0 -0 -0 -0 -0 -0 0 0 0 0 0 0 0 0 0 0 0 0 0 0 0 0 0
0 0 0 0 0 0 0 0 0 -0 -0 -0 -0 -0 -0 0 -0 -0 -0 0 0 0 0 0 0 0 0 0 0 0 0 0 0 0 0 0 0 0
0 0 0 0 0 0 0 0 0 -0 -0 -0 -0 -0 -0 -0 0 0 -0 -0 -0 0 0 0 0 0 0 0 0 0 0 0 0 0 0 -0 -0 -0
0 0 0 0 0 0 0 0 0 0 -0 -0 -0 -0 -0 -0 -0 -0 0 0 0 0 0 0 0 0 0 0 0 0 0 0 0 0 0 0 0 -0
0 0 0 0 0 0 0 0 0 0 0 -0 -0 -0 -0 -0 -0 -0 -0 0 0 0 0 0 0 0 0 0 0 0 0 0 0 0 0 0 0 0
Wind_Speed_500mb
37 41 39 41 43 46 49 42 46 66 72 67 65 49 50 50 52 55 52 55 53 49 50 48 43 36 25 26 34 41 65 47 47 52 51 52 49 47
40 43 45 47 51 50 47 45 44 52 71 61 61 57 55 55 55 55 52 57 55 55 54 54 53 45 34 28 30 43 52 47 51 44 49 53 54 51
42 45 50 53 51 48 48 47 46 48 61 73 61 58 59 56 54 49 47 48 47 53 51 49 51 54 46 37 32 31 44 47 45 53 59 58 59 57
42 51 58 53 53 50 49 49 49 50 55 68 64 58 49 49 50 48 44 46 47 47 50 47 45 45 49 44 37 32 44 48 48 51 54 64 65 58
52 59 62 57 53 50 50 52 48 44 44 51 64 54 53 48 43 42 43 50 46 50 51 49 49 47 42 40 39 33 36 48 43 44 59 60 61 51
59 62 63 57 51 49 48 47 45 44 43 49 55 51 44 43 33 35 38 37 44 43 42 46 46 46 44 40 37 32 32 39 53 52 56 69 69 75
57 59 61 57 51 42 37 40 42 44 44 45 48 47 43 40 38 40 39 36 36 34 35 31 28 26 28 35 36 35 30 28 30 36 38 50 80 55
56 57 52 46 35 39 34 28 34 45 49 45 49 47 48 41 39 36 36 35 32 31 29 29 20 22 25 25 32 43 36 31 23 30 30 24 33 57
52 50 45 36 36 33 35 45 44 45 46 50 50 48 44 37 36 38 33 36 35 30 24 32 27 28 27 38 38 38 43 35 33 22 30 32 30 29
47 43 36 36 34 34 44 42 38 41 38 38 40 44 41 40 40 40 44 36 37 39 33 36 32 33 26 36 49 39 39 41 38 33 26 26 28 28
44 36 34 35 33 35 39 40 41 38 35 41 41 36 37 41 41 38 37 34 32 30 27 29 28 25 23 26 36 48 40 44 43 41 38 35 36 36
40 38 39 36 32 36 36 36 36 39 41 38 32 28 30 30 28 29 33 38 38 28 22 23 24 18 16 17 29 37 43 47 44 43 44 46 47 41
39 41 39 37 36 39 34 26 34 42 39 33 29 27 27 26 26 25 26 30 37 42 33 27 23 21 22 15 8 26 37 44 47 50 45 41 40 40
39 41 41 39 41 38 34 33 33 36 31 28 27 26 28 26 27 26 25 29 31 33 28 32 30 26 22 21 22 12 17 29 46 50 51 53 52 52
37 39 39 37 38 36 34 32 32 32 27 27 29 28 28 26 23 27 19 19 19 21 23 30 33 31 24 22 19 19 12 21 25 38 44 43 46 54
36 36 36 34 33 32 31 30 31 27 25 27 28 26 26 28 27 30 28 13 7 11 15 16 29 32 28 26 23 24 20 12 31 34 37 37 38 39
34 33 32 33 33 32 31 32 33 28 21 23 27 28 26 27 27 27 25 23 20 16 14 4 10 19 23 21 21 21 20 24 27 25 31 34 38 38
32 32 31 31 32 33 33 33 34 35 29 24 26 28 28 27 28 26 24 20 19 20 21 12 5 11 14 15 19 15 14 19 25 28 30 29 27 36
30 29 29 29 30 30 31 32 33 34 33 30 28 28 26 25 24 24 23 22 21 18 15 15 12 7 16 13 11 15 15 13 18 24 26 30 32 31
29 27 28 27 27 28 29 30 29 30 31 31 29 28 26 25 24 24 23 26 23 20 17 12 8 6 3 5 6 9 12 12 12 11 18 18 21 27
31 27 27 26 26 26 28 28 29 29 30 30 30 28 27 25 22 21 21 21 22 21 18 13 8 4 3 5 4 6 11 11 9 10 9 13 13 14
31 28 26 25 25 26 25 25 26 27 27 27 27 27 27 26 24 22 22 22 20 22 16 9 5 2 1 2 4 7 10 8 7 6 6 8 8 7
32 29 26 25 24 24 24 24 24 25 26 26 26 26 26 24 23 22 21 21 20 19 13 6 3 1 2 6 5 5 5 12 10 5 6 6 7 8
Wind_Direction_500mb
309 316 315 313 305 298 293 296 298 300 298 300 300 298 294 288 284 287 282 280 281 285 291 295 304 308 312 281 269 269 256 254 228 228 233 237 242 237
302 309 311 308 302 295 295 295 293 290 292 296 294 294 294 290 284 283 280 272 273 276 280 282 287 295 301 302 282 261 263 255 243 216 230 229 233 225
293 300 302 302 300 298 296 295 293 290 290 293 293 295 294 293 290 286 273 266 271 277 279 279 278 280 290 294 300 275 241 248 248 241 233 234 230 228
294 299 302 301 300 300 299 296 292 290 288 292 295 297 292 291 289 285 269 259 261 274 278 278 280 281 279 285 292 299 261 235 234 228 223 229 225 223
301 303 303 302 302 301 300 296 293 290 286 287 294 295 296 298 288 284 275 264 264 270 276 276 274 276 277 276 279 292 284 235 216 205 197 210 207 215
304 304 305 305 304 304 299 297 297 292 290 289 290 294 295 294 301 295 283 270 264 263 271 275 275 272 269 266 256 267 279 249 239 209 181 188 186 185
311 311 309 311 309 305 301 299 297 297 295 291 291 293 294 294 291 284 288 286 275 261 266 274 280 276 261 262 250 245 252 254 245 234 222 162 178 180
316 316 317 320 316 312 313 317 315 304 296 293 289 287 290 287 293 287 277 279 290 263 265 268 275 277 256 251 240 227 235 243 258 247 245 225 173 160
320 322 321 321 320 316 317 318 313 307 300 292 290 287 281 288 291 292 281 271 271 274 278 273 278 276 266 244 226 221 221 226 238 236 226 217 208 183
327 325 321 321 318 321 319 316 313 311 305 304 305 286 277 281 282 281 284 284 269 266 267 271 276 274 273 251 240 225 200 210 222 220 236 226 211 207
327 328 323 319 319 324 320 319 318 319 314 308 302 301 291 286 280 278 275 279 264 268 255 252 266 267 267 259 243 237 219 203 213 221 219 224 231 219
334 332 331 330 329 325 322 319 324 322 322 321 315 313 310 308 300 276 263 259 263 281 249 248 262 266 286 268 244 238 237 225 205 215 207 214 215 206
333 336 333 334 332 333 330 325 314 317 325 325 322 318 314 309 307 301 277 255 252 251 248 250 257 259 246 257 244 226 226 227 226 219 221 225 218 217
334 336 336 335 334 337 333 326 323 328 331 333 334 332 331 327 322 312 290 274 264 253 244 249 241 237 239 237 224 236 230 226 224 225 225 227 229 232
335 336 340 342 340 341 341 338 334 332 340 344 344 346 350 349 352 347 315 281 270 260 246 239 243 244 238 222 212 222 203 221 214 216 224 226 229 231
337 340 343 347 347 348 352 356 356 349 349 353 355 353 355 360 3 11 26 11 299 319 306 250 235 243 234 221 222 212 211 187 208 210 215 219 224 226
336 339 341 345 354 359 1 3 7 5 356 357 1 3 3 1 6 10 23 35 37 24 26 52 206 212 215 209 202 207 216 206 188 203 209 217 222 227
334 337 342 345 350 355 359 2 3 7 7 360 358 0 2 3 4 5 10 14 16 23 31 49 83 179 190 206 213 216 209 210 210 216 219 222 220 225
329 333 336 341 344 348 352 358 1 2 3 359 354 353 355 359 1 0 2 4 4 2 4 27 58 175 189 177 199 208 209 210 223 220 226 229 231 227
319 325 329 332 337 339 343 347 352 356 359 360 358 354 351 347 351 358 1 1 356 351 354 357 10 52 65 105 167 222 212 226 243 211 220 228 216 218
306 315 321 325 327 330 332 337 341 347 352 354 355 355 355 355 350 345 345 346 349 350 348 348 337 321 279 273 276 259 252 250 225 199 210 208 214 213
295 303 311 317 320 324 326 330 334 338 344 349 352 352 354 355 356 353 351 351 353 353 350 345 344 327 310 244 273 285 225 205 190 183 192 195 185 187
287 293 299 308 312 317 320 323 328 330 336 342 348 350 350 353 355 356 354 354 354 355 2 10 25 130 207 233 238 233 196 199 201 206 237 230 221 216
Wind_Speed_850mb
37 41 39 41 43 46 49 42 46 66 72 67 65 49 50 50 52 55 52 55 53 49 50 48 43 36 25 26 34 41 65 47 47 52 51 52 49 47
40 43 45 47 51 50 47 45 44 52 71 61 61 57 55 55 55 55 52 57 55 55 54 54 53 45 34 28 30 43 52 47 51 44 49 53 54 51
42 45 50 53 51 48 48 47 46 48 61 73 61 58 59 56 54 49 47 48 47 53 51 49 51 54 46 37 32 31 44 47 45 53 59 58 59 57
42 51 58 53 53 50 49 49 49 50 55 68 64 58 49 49 50 48 44 46 47 47 50 47 45 45 49 44 37 32 44 48 48 51 54 64 65 58
52 59 62 57 53 50 50 52 48 44 44 51 64 54 53 48 43 42 43 50 46 50 51 49 49 47 42 40 39 33 36 48 43 44 59 60 61 51
59 62 63 57 51 49 48 47 45 44 43 49 55 51 44 43 33 35 38 37 44 43 42 46 46 46 44 40 37 32 32 39 53 52 56 69 69 75
57 59 61 57 51 42 37 40 42 44 44 45 48 47 43 40 38 40 39 36 36 34 35 31 28 26 28 35 36 35 30 28 30 36 38 50 80 55
56 57 52 46 35 39 34 28 34 45 49 45 49 47 48 41 39 36 36 35 32 31 29 29 20 22 25 25 32 43 36 31 23 30 30 24 33 57
52 50 45 36 36 33 35 45 44 45 46 50 50 48 44 37 36 38 33 36 35 30 24 32 27 28 27 38 38 38 43 35 33 22 30 32 30 29
47 43 36 36 34 34 44 42 38 41 38 38 40 44 41 40 40 40 44 36 37 39 33 36 32 33 26 36 49 39 39 41 38 33 26 26 28 28
44 36 34 35 33 35 39 40 41 38 35 41 41 36 37 41 41 38 37 34 32 30 27 29 28 25 23 26 36 48 40 44 43 41 38 35 36 36
40 38 39 36 32 36 36 36 36 39 41 38 32 28 30 30 28 29 33 38 38 28 22 23 24 18 16 17 29 37 43 47 44 43 44 46 47 41
39 41 39 37 36 39 34 26 34 42 39 33 29 27 27 26 26 25 26 30 37 42 33 27 23 21 22 15 8 26 37 44 47 50 45 41 40 40
39 41 41 39 41 38 34 33 33 36 31 28 27 26 28 26 27 26 25 29 31 33 28 32 30 26 22 21 22 12 17 29 46 50 51 53 52 52
37 39 39 37 38 36 34 32 32 32 27 27 29 28 28 26 23 27 19 19 19 21 23 30 33 31 24 22 19 19 12 21 25 38 44 43 46 54
36 36 36 34 33 32 31 30 31 27 25 27 28 26 26 28 27 30 28 13 7 11 15 16 29 32 28 26 23 24 20 12 31 34 37 37 38 39
34 33 32 33 33 32 31 32 33 28 21 23 27 28 26 27 27 27 25 23 20 16 14 4 10 19 23 21 21 21 20 24 27 25 31 34 38 38
32 32 31 31 32 33 33 33 34 35 29 24 26 28 28 27 28 26 24 20 19 20 21 12 5 11 14 15 19 15 14 19 25 28 30 29 27 36
30 29 29 29 30 30 31 32 33 34 33 30 28 28 26 25 24 24 23 22 21 18 15 15 12 7 16 13 11 15 15 13 18 24 26 30 32 31
29 27 28 27 27 28 29 30 29 30 31 31 29 28 26 25 24 24 23 26 23 20 17 12 8 6 3 5 6 9 12 12 12 11 18 18 21 27
31 27 27 26 26 26 28 28 29 29 30 30 30 28 27 25 22 21 21 21 22 21 18 13 8 4 3 5 4 6 11 11 9 10 9 13 13 14
31 28 26 25 25 26 25 25 26 27 27 27 27 27 27 26 24 22 22 22 20 22 16 9 5 2 1 2 4 7 10 8 7 6 6 8 8 7
32 29 26 25 24 24 24 24 24 25 26 26 26 26 26 24 23 22 21 21 20 19 13 6 3 1 2 6 5 5 5 12 10 5 6 6 7 8
Wind_Direction_850mb
309 316 315 313 305 298 293 296 298 300 298 300 300 298 294 288 284 287 282 280 281 285 291 295 304 308 312 281 269 269 256 254 228 228 233 237 242 237
302 309 311 308 302 295 295 295 293 290 292 296 294 294 294 290 284 283 280 272 273 276 280 282 287 295 301 302 282 261 263 255 243 216 230 229 233 225
293 300 302 302 300 298 296 295 293 290 290 293 293 295 294 293 290 286 273 266 271 277 279 279 278 280 290 294 300 275 241 248 248 241 233 234 230 228
294 299 302 301 300 300 299 296 292 290 288 292 295 297 292 291 289 285 269 259 261 274 278 278 280 281 279 285 292 299 261 235 234 228 223 229 225 223
301 303 303 302 302 301 300 296 293 290 286 287 294 295 296 298 288 284 275 264 264 270 276 276 274 276 277 276 279 292 284 235 216 205 197 210 207 215
304 304 305 305 304 304 299 297 297 292 290 289 290 294 295 294 301 295 283 270 264 263 271 275 275 272 269 266 256 267 279 249 239 209 181 188 186 185
311 311 309 311 309 305 301 299 297 297 295 291 291 293 294 294 291 284 288 286 275 261 266 274 280 276 261 262 250 245 252 254 245 234 222 162 178 180
316 316 317 320 316 312 313 317 315 304 296 293 289 287 290 287 293 287 277 279 290 263 265 268 275 277 256 251 240 227 235 243 258 247 245 225 173 160
320 322 321 321 320 316 317 318 313 307 300 292 290 287 281 288 291 292 281 271 271 274 278 273 278 276 266 244 226 221 221 226 238 236 226 217 208 183
327 325 321 321 318 321 319 316 313 311 305 304 305 286 277 281 282 281 284 284 269 266 267 271 276 274 273 251 240 225 200 210 222 220 236 226 211 207
327 328 323 319 319 324 320 319 318 319 314 308 302 301 291 286 280 278 275 279 264 268 255 252 266 267 267 259 243 237 219 203 213 221 219 224 231 219
334 332 331 330 329 325 322 319 324 322 322 321 315 313 310 308 300 276 263 259 263 281 249 248 262 266 286 268 244 238 237 225 205 215 207 214 215 206
333 336 333 334 332 333 330 325 314 317 325 325 322 318 314 309 307 301 277 255 252 251 248 250 257 259 246 257 244 226 226 227 226 219 221 225 218 217
334 336 336 335 334 337 333 326 323 328 331 333 334 332 331 327 322 312 290 274 264 253 244 249 241 237 239 237 224 236 230 226 224 225 225 227 229 232
335 336 340 342 340 341 341 338 334 332 340 344 344 346 350 349 352 347 315 281 270 260 246 239 243 244 238 222 212 222 203 221 214 216 224 226 229 231
337 340 343 347 347 348 352 356 356 349 349 353 355 353 355 360 3 11 26 11 299 319 306 250 235 243 234 221 222 212 211 187 208 210 215 219 224 226
336 339 341 345 354 359 1 3 7 5 356 357 1 3 3 1 6 10 23 35 37 24 26 52 206 212 215 209 202 207 216 206 188 203 209 217 222 227
334 337 342 345 350 355 359 2 3 7 7 360 358 0 2 3 4 5 10 14 16 23 31 49 83 179 190 206 213 216 209 210 210 216 219 222 220 225
329 333 336 341 344 348 352 358 1 2 3 359 354 353 355 359 1 0 2 4 4 2 4 27 58 175 189 177 199 208 209 210 223 220 226 229 231 227
319 325 329 332 337 339 343 347 352 356 359 360 358 354 351 347 351 358 1 1 356 351 354 357 10 52 65 105 167 222 212 226 243 211 220 228 216 218
306 315 321 325 327 330 332 337 341 347 352 354 355 355 355 355 350 345 345 346 349 350 348 348 337 321 279 273 276 259 252 250 225 199 210 208 214 213
295 303 311 317 320 324 326 330 334 338 344 349 352 352 354 355 356 353 351 351 353 353 350 345 344 327 310 244 273 285 225 205 190 183 192 195 185 187
287 293 299 308 312 317 320 323 328 330 336 342 348 350 350 353 355 356 354 354 354 355 2 10 25 130 207 233 238 233 196 199 201 206 237 230 221 216